Geely Xingzuo 02 zu 02 xing

operational
NORAD ID: 58906 Int'l Des: 2024-023 Owner: GEESP Country: CN Constellation: geesatcom
LEOCIRCULAR

Geely Xingzuo 02 zu 02 xingについて

説明を読み込み中...

リアルタイム位置

3D地球を読み込み中...

次回通過

高度履歴

Altitude vs Time

uPlot chart will show altitude changes over time

軌道要素

1 58906U 24023B 26062.20718209 .00002344 00000-0 31342-3 0 9993
2 58906 49.9976 124.9311 0015408 311.0838 48.8768 14.82869893113180
Epoch: Mar 3, 2026 • Age: 21 hours

現在のステータス

高度 617.5 km
速度 7.56 km/s
衛星直下点 -27.50°S, 20.27°W
打ち上げ日 Feb 2, 2024
運用期間 2 years
タイプ other

技術仕様

分類 Payload
質量 130.00 kg
乾燥質量 130.00 kg
総質量 130.00 kg
長さ 1.00 m
直径 0.50 m
スパン 2.00 m
形状 Box + 2 pan
製造者 GWCG
バスタイプ GPS100
フェーズステータス In Orbit
所有者/国 GEESP/CN

大規模コンステレーション

Loading constellations...